AMA5383 KFAT-KDFW

Flight info

Callsign AMA5383
Flight time N/A
Altitude 39000
Route YOSE3 NTELL CABAB Q174 SKANN MYCAL Q158 JEDNA LAKRR PLNDL GUP CUBBA CRTTR TXO TURKI VKTRY2
Aircraft A20N/M-SDE2E3FGHIRWXY/LB1

Departure

Time 2026-04-25 19:51
Airport Fresno Yosemite International Airport (KFAT)

Arrival

Time N/A
Airport Dallas Fort Worth International Airport (KDFW)
Time Latitude Longitude Altitude Speed Heading
2026-04-25 19:40 36.77221 -119.71837 348 ft 0 kts 192°
2026-04-25 19:46 36.77222 -119.71837 348 ft 0 kts 192°
2026-04-25 19:46 36.77232 -119.71834 348 ft 2 kts 192°
2026-04-25 19:46 36.77245 -119.71831 347 ft 2 kts 192°
2026-04-25 19:47 36.77258 -119.71827 350 ft 2 kts 192°
2026-04-25 19:47 36.77273 -119.71824 347 ft 2 kts 180°
2026-04-25 19:47 36.77289 -119.71827 347 ft 2 kts 126°
2026-04-25 19:47 36.77292 -119.71833 347 ft 0 kts 125°
2026-04-25 19:48 36.77289 -119.71828 347 ft 1 kts 125°
2026-04-25 19:48 36.77233 -119.71730 342 ft 17 kts 126°
2026-04-25 19:48 36.77206 -119.71619 338 ft 9 kts 80°
2026-04-25 19:48 36.77185 -119.71530 334 ft 13 kts 123°
2026-04-25 19:49 36.77080 -119.71345 332 ft 44 kts 124°
2026-04-25 19:49 36.77015 -119.71233 334 ft 49 kts 125°
2026-04-25 19:49 36.76988 -119.71080 335 ft 13 kts 42°
2026-04-25 19:49 36.77063 -119.71053 333 ft 11 kts 317°
2026-04-25 19:50 36.77089 -119.71104 334 ft 0 kts 306°
2026-04-25 19:50 36.77272 -119.71425 334 ft 97 kts 305°
2026-04-25 19:51 36.77867 -119.72472 365 ft 190 kts 305°
2026-04-25 19:51 36.78709 -119.73928 962 ft 225 kts 306°
2026-04-25 19:51 36.79707 -119.75620 1737 ft 259 kts 306°
2026-04-25 19:51 36.80854 -119.77524 2646 ft 288 kts 307°
2026-04-25 19:52 36.82133 -119.79602 3668 ft 315 kts 307°
2026-04-25 19:52 36.83508 -119.81849 4743 ft 337 kts 307°
2026-04-25 19:52 36.84474 -119.83416 5532 ft 348 kts 309°
2026-04-25 19:52 36.86174 -119.85623 6984 ft 356 kts 317°
2026-04-25 19:53 36.87326 -119.87099 7836 ft 366 kts 308°